owner,sensor,date,latitude,longitude,vertical_datum,sea_water_practical_salinity,qcFlag 
SCCF RECON,ioos:station:SCCF:13:1,2017-10-01T04:00:00Z,26.5255,-82.0032,2.71,15.81,1111122 
SCCF RECON,ioos:station:SCCF:13:1,2017-10-01T05:00:00Z,26.5255,-82.0032,2.72,20.1,1111122 
SCCF RECON,ioos:station:SCCF:13:1,2017-10-01T06:00:00Z,26.5255,-82.0032,2.65,20.21,1111122 
SCCF RECON,ioos:station:SCCF:13:1,2017-10-01T07:00:00Z,26.5255,-82.0032,2.58,15.45,1111122 
SCCF RECON,ioos:station:SCCF:13:1,2017-10-01T08:00:00Z,26.5255,-82.0032,2.52,5.12,1111122 
SCCF RECON,ioos:station:SCCF:13:1,2017-10-01T09:00:00Z,26.5255,-82.0032,2.484,2.59,1111122 
SCCF RECON,ioos:station:SCCF:13:1,2017-10-01T10:00:00Z,26.5255,-82.0032,2.499,1.77,1111122 
SCCF RECON,ioos:station:SCCF:13:1,2017-10-01T11:00:00Z,26.5255,-82.0032,2.55,1.36,1111122 
SCCF RECON,ioos:station:SCCF:13:1,2017-10-01T12:00:00Z,26.5255,-82.0032,2.64,10.98,1111122 
SCCF RECON,ioos:station:SCCF:13:1,2017-10-01T13:00:00Z,26.5255,-82.0032,2.71,17.0,1111122 
SCCF RECON,ioos:station:SCCF:13:1,2017-10-01T14:00:00Z,26.5255,-82.0032,2.75,17.74,1111122 
SCCF RECON,ioos:station:SCCF:13:1,2017-10-01T15:00:00Z,26.5255,-82.0032,2.77,21.03,1111122 
SCCF RECON,ioos:station:SCCF:13:1,2017-10-01T16:00:00Z,26.5255,-82.0032,2.752,22.02,1111122 
SCCF RECON,ioos:station:SCCF:13:1,2017-10-01T17:00:00Z,26.5255,-82.0032,2.7,20.42,1111122 
SCCF RECON,ioos:station:SCCF:13:1,2017-10-01T18:00:00Z,26.5255,-82.0032,2.61,17.73,1111122 
SCCF RECON,ioos:station:SCCF:13:1,2017-10-01T19:00:00Z,26.5255,-82.0032,2.471,3.99,1111122 
SCCF RECON,ioos:station:SCCF:13:1,2017-10-01T20:00:00Z,26.5255,-82.0032,2.375,1.65,1111122 
SCCF RECON,ioos:station:SCCF:13:1,2017-10-01T21:00:00Z,26.5255,-82.0032,2.316,1.24,1111122 
SCCF RECON,ioos:station:SCCF:13:1,2017-10-01T22:00:00Z,26.5255,-82.0032,2.3,0.86,1111122 
SCCF RECON,ioos:station:SCCF:13:1,2017-10-02T04:00:00Z,26.5255,-82.0032,2.74,17.21,1111122 
SCCF RECON,ioos:station:SCCF:13:1,2017-10-02T05:00:00Z,26.5255,-82.0032,2.75,20.75,1111122 
SCCF RECON,ioos:station:SCCF:13:1,2017-10-02T07:00:00Z,26.5255,-82.0032,2.61,21.8,1111122 
SCCF RECON,ioos:station:SCCF:13:1,2017-10-02T08:00:00Z,26.5255,-82.0032,2.53,17.08,1111122 
SCCF RECON,ioos:station:SCCF:13:1,2017-10-02T09:00:00Z,26.5255,-82.0032,2.47,2.84,1111122 
SCCF RECON,ioos:station:SCCF:13:1,2017-10-02T10:00:00Z,26.5255,-82.0032,2.47,1.44,1111122 
SCCF RECON,ioos:station:SCCF:13:1,2017-10-02T11:00:00Z,26.5255,-82.0032,2.54,0.94,1111122 
SCCF RECON,ioos:station:SCCF:13:1,2017-10-02T12:00:00Z,26.5255,-82.0032,2.65,13.05,1111122 
SCCF RECON,ioos:station:SCCF:13:1,2017-10-02T13:00:00Z,26.5255,-82.0032,2.739,14.66,1111122 
SCCF RECON,ioos:station:SCCF:13:1,2017-10-02T14:00:00Z,26.5255,-82.0032,2.789,18.99,1111122 
SCCF RECON,ioos:station:SCCF:13:1,2017-10-02T15:00:00Z,26.5255,-82.0032,2.83,20.85,1111122 
SCCF RECON,ioos:station:SCCF:13:1,2017-10-02T16:00:00Z,26.5255,-82.0032,2.868,22.56,1111122 
SCCF RECON,ioos:station:SCCF:13:1,2017-10-02T17:00:00Z,26.5255,-82.0032,2.88,24.27,1111122 
SCCF RECON,ioos:station:SCCF:13:1,2017-10-02T18:00:00Z,26.5255,-82.0032,2.798,24.72,1111122 
SCCF RECON,ioos:station:SCCF:13:1,2017-10-02T19:00:00Z,26.5255,-82.0032,2.68,22.58,1111122 
SCCF RECON,ioos:station:SCCF:13:1,2017-10-02T20:00:00Z,26.5255,-82.0032,2.533,5.78,1111122 
SCCF RECON,ioos:station:SCCF:13:1,2017-10-02T21:00:00Z,26.5255,-82.0032,2.46,3.17,1111122 
SCCF RECON,ioos:station:SCCF:13:1,2017-10-02T22:00:00Z,26.5255,-82.0032,2.381,2.84,1111122 
SCCF RECON,ioos:station:SCCF:13:1,2017-10-03T04:00:00Z,26.5255,-82.0032,2.727,13.38,1111122 
SCCF RECON,ioos:station:SCCF:13:1,2017-10-03T05:00:00Z,26.5255,-82.0032,2.711,17.69,1111122 
SCCF RECON,ioos:station:SCCF:13:1,2017-10-03T06:00:00Z,26.5255,-82.0032,2.668,20.34,1111122 
SCCF RECON,ioos:station:SCCF:13:1,2017-10-03T07:00:00Z,26.5255,-82.0032,2.56,18.44,1111122 
SCCF RECON,ioos:station:SCCF:13:1,2017-10-03T08:00:00Z,26.5255,-82.0032,2.461,4.14,1111122 
SCCF RECON,ioos:station:SCCF:13:1,2017-10-03T09:00:00Z,26.5255,-82.0032,2.41,1.49,1111122 
SCCF RECON,ioos:station:SCCF:13:1,2017-10-03T12:00:00Z,26.5255,-82.0032,2.469,0.64,1111122 
SCCF RECON,ioos:station:SCCF:13:1,2017-10-03T13:00:00Z,26.5255,-82.0032,2.57,0.6,1111122 
SCCF RECON,ioos:station:SCCF:13:1,2017-10-03T14:00:00Z,26.5255,-82.0032,2.665,12.7,1111122 
SCCF RECON,ioos:station:SCCF:13:1,2017-10-03T15:00:00Z,26.5255,-82.0032,2.723,14.95,1111122 
SCCF RECON,ioos:station:SCCF:13:1,2017-10-03T16:00:00Z,26.5255,-82.0032,2.762,17.78,1111122 
SCCF RECON,ioos:station:SCCF:13:1,2017-10-03T17:00:00Z,26.5255,-82.0032,2.759,19.32,1111122 
SCCF RECON,ioos:station:SCCF:13:1,2017-10-03T18:00:00Z,26.5255,-82.0032,2.71,20.81,1111122 
SCCF RECON,ioos:station:SCCF:13:1,2017-10-03T19:00:00Z,26.5255,-82.0032,2.617,17.78,1111122 
SCCF RECON,ioos:station:SCCF:13:1,2017-10-03T20:00:00Z,26.5255,-82.0032,2.47,7.22,1111122 
SCCF RECON,ioos:station:SCCF:13:1,2017-10-03T21:00:00Z,26.5255,-82.0032,2.368,1.83,1111122 
SCCF RECON,ioos:station:SCCF:13:1,2017-10-03T22:00:00Z,26.5255,-82.0032,2.29,1.32,1111122 
SCCF RECON,ioos:station:SCCF:13:1,2017-10-04T04:00:00Z,26.5255,-82.0032,2.601,4.27,1111122 
SCCF RECON,ioos:station:SCCF:13:1,2017-10-04T05:00:00Z,26.5255,-82.0032,2.626,7.48,1111122 
SCCF RECON,ioos:station:SCCF:13:1,2017-10-04T06:00:00Z,26.5255,-82.0032,2.62,15.15,1111122 
SCCF RECON,ioos:station:SCCF:13:1,2017-10-04T07:00:00Z,26.5255,-82.0032,2.554,16.55,1111122 
SCCF RECON,ioos:station:SCCF:13:1,2017-10-04T08:00:00Z,26.5255,-82.0032,2.414,5.84,1111122 
SCCF RECON,ioos:station:SCCF:13:1,2017-10-04T09:00:00Z,26.5255,-82.0032,2.319,0.78,1111122 
SCCF RECON,ioos:station:SCCF:13:1,2017-10-04T11:00:00Z,26.5255,-82.0032,2.23,0.26,1111122 
SCCF RECON,ioos:station:SCCF:13:1,2017-10-04T12:00:00Z,26.5255,-82.0032,2.25,0.2,1111122 
SCCF RECON,ioos:station:SCCF:13:1,2017-10-04T13:00:00Z,26.5255,-82.0032,2.4,0.19,1111122 
SCCF RECON,ioos:station:SCCF:13:1,2017-10-04T14:00:00Z,26.5255,-82.0032,2.511,0.34,1111122 
SCCF RECON,ioos:station:SCCF:13:1,2017-10-04T15:00:00Z,26.5255,-82.0032,2.588,5.03,1111122 
SCCF RECON,ioos:station:SCCF:13:1,2017-10-04T16:00:00Z,26.5255,-82.0032,2.673,9.9,1111122 
SCCF RECON,ioos:station:SCCF:13:1,2017-10-04T17:00:00Z,26.5255,-82.0032,2.698,15.91,1111122 
SCCF RECON,ioos:station:SCCF:13:1,2017-10-04T18:00:00Z,26.5255,-82.0032,2.696,18.69,1111122 
SCCF RECON,ioos:station:SCCF:13:1,2017-10-04T19:00:00Z,26.5255,-82.0032,2.655,20.09,1111122 
SCCF RECON,ioos:station:SCCF:13:1,2017-10-04T20:00:00Z,26.5255,-82.0032,2.54,18.4,1111122 
SCCF RECON,ioos:station:SCCF:13:1,2017-10-04T21:00:00Z,26.5255,-82.0032,2.45,10.67,1111122 
SCCF RECON,ioos:station:SCCF:13:1,2017-10-04T22:00:00Z,26.5255,-82.0032,2.369,2.42,1111122 
SCCF RECON,ioos:station:SCCF:13:1,2017-10-05T04:00:00Z,26.5255,-82.0032,2.65,13.43,1111122 
SCCF RECON,ioos:station:SCCF:13:1,2017-10-05T05:00:00Z,26.5255,-82.0032,2.72,15.43,1111122 
SCCF RECON,ioos:station:SCCF:13:1,2017-10-05T06:00:00Z,26.5255,-82.0032,2.741,19.19,1111122 
SCCF RECON,ioos:station:SCCF:13:1,2017-10-05T07:00:00Z,26.5255,-82.0032,2.713,21.9,1111122 
SCCF RECON,ioos:station:SCCF:13:1,2017-10-05T08:00:00Z,26.5255,-82.0032,2.598,21.71,1111122 
SCCF RECON,ioos:station:SCCF:13:1,2017-10-05T09:00:00Z,26.5255,-82.0032,2.46,13.89,1111122 
SCCF RECON,ioos:station:SCCF:13:1,2017-10-05T10:00:00Z,26.5255,-82.0032,2.39,3.23,1111122 
SCCF RECON,ioos:station:SCCF:13:1,2017-10-05T11:00:00Z,26.5255,-82.0032,2.33,2.1,1111122 
SCCF RECON,ioos:station:SCCF:13:1,2017-10-05T13:00:00Z,26.5255,-82.0032,2.31,0.99,1111122 
SCCF RECON,ioos:station:SCCF:13:1,2017-10-05T14:00:00Z,26.5255,-82.0032,2.481,0.78,1111122 
SCCF RECON,ioos:station:SCCF:13:1,2017-10-05T15:00:00Z,26.5255,-82.0032,2.61,7.64,1111122 
SCCF RECON,ioos:station:SCCF:13:1,2017-10-05T16:00:00Z,26.5255,-82.0032,2.662,11.62,1111122 
SCCF RECON,ioos:station:SCCF:13:1,2017-10-05T18:00:00Z,26.5255,-82.0032,2.75,19.14,1111122 
SCCF RECON,ioos:station:SCCF:13:1,2017-10-05T19:00:00Z,26.5255,-82.0032,2.76,20.64,1111122 
SCCF RECON,ioos:station:SCCF:13:1,2017-10-05T20:00:00Z,26.5255,-82.0032,2.74,21.29,1111122 
SCCF RECON,ioos:station:SCCF:13:1,2017-10-05T21:00:00Z,26.5255,-82.0032,2.64,21.46,1111122 
SCCF RECON,ioos:station:SCCF:13:1,2017-10-05T22:00:00Z,26.5255,-82.0032,2.498,15.7,1111122 
SCCF RECON,ioos:station:SCCF:13:1,2017-10-06T04:00:00Z,26.5255,-82.0032,2.808,16.64,1111122 
SCCF RECON,ioos:station:SCCF:13:1,2017-10-06T05:00:00Z,26.5255,-82.0032,2.881,23.88,1111122 
SCCF RECON,ioos:station:SCCF:13:1,2017-10-06T06:00:00Z,26.5255,-82.0032,2.958,26.36,1111122 
SCCF RECON,ioos:station:SCCF:13:1,2017-10-06T07:00:00Z,26.5255,-82.0032,2.99,26.82,1111122 
SCCF RECON,ioos:station:SCCF:13:1,2017-10-06T08:00:00Z,26.5255,-82.0032,2.95,27.31,1111122 
SCCF RECON,ioos:station:SCCF:13:1,2017-10-06T09:00:00Z,26.5255,-82.0032,2.84,27.64,1111122 
SCCF RECON,ioos:station:SCCF:13:1,2017-10-06T10:00:00Z,26.5255,-82.0032,2.689,24.91,1111122 
SCCF RECON,ioos:station:SCCF:13:1,2017-10-06T11:00:00Z,26.5255,-82.0032,2.582,9.54,1111122 
SCCF RECON,ioos:station:SCCF:13:1,2017-10-06T12:00:00Z,26.5255,-82.0032,2.52,6.01,1111122 
SCCF RECON,ioos:station:SCCF:13:1,2017-10-06T13:00:00Z,26.5255,-82.0032,2.472,4.65,1111122 
SCCF RECON,ioos:station:SCCF:13:1,2017-10-06T14:00:00Z,26.5255,-82.0032,2.571,3.92,1111122 
SCCF RECON,ioos:station:SCCF:13:1,2017-10-06T15:00:00Z,26.5255,-82.0032,2.77,4.51,1111122 
SCCF RECON,ioos:station:SCCF:13:1,2017-10-06T16:00:00Z,26.5255,-82.0032,2.88,15.02,1111122 
SCCF RECON,ioos:station:SCCF:13:1,2017-10-06T17:00:00Z,26.5255,-82.0032,2.934,20.25,1111122 
SCCF RECON,ioos:station:SCCF:13:1,2017-10-06T18:00:00Z,26.5255,-82.0032,2.99,26.23,1111122 
SCCF RECON,ioos:station:SCCF:13:1,2017-10-06T19:00:00Z,26.5255,-82.0032,3.03,27.35,1111122 
SCCF RECON,ioos:station:SCCF:13:1,2017-10-06T20:00:00Z,26.5255,-82.0032,2.997,27.15,1111122 
SCCF RECON,ioos:station:SCCF:13:1,2017-10-06T21:00:00Z,26.5255,-82.0032,2.89,27.38,1111122 
SCCF RECON,ioos:station:SCCF:13:1,2017-10-06T22:00:00Z,26.5255,-82.0032,2.77,25.28,1111122 
SCCF RECON,ioos:station:SCCF:13:1,2017-10-07T04:00:00Z,26.5255,-82.0032,2.9,13.99,1111122 
SCCF RECON,ioos:station:SCCF:13:1,2017-10-07T05:00:00Z,26.5255,-82.0032,2.95,19.33,1111122 
SCCF RECON,ioos:station:SCCF:13:1,2017-10-07T06:00:00Z,26.5255,-82.0032,3.02,23.43,1111122 
SCCF RECON,ioos:station:SCCF:13:1,2017-10-07T07:00:00Z,26.5255,-82.0032,3.06,26.43,1111122 
SCCF RECON,ioos:station:SCCF:13:1,2017-10-07T08:00:00Z,26.5255,-82.0032,3.02,27.44,1111122 
SCCF RECON,ioos:station:SCCF:13:1,2017-10-07T09:00:00Z,26.5255,-82.0032,2.887,27.45,1111122 
SCCF RECON,ioos:station:SCCF:13:1,2017-10-07T10:00:00Z,26.5255,-82.0032,2.734,21.89,1111122 
SCCF RECON,ioos:station:SCCF:13:1,2017-10-07T11:00:00Z,26.5255,-82.0032,2.642,8.12,1111122 
SCCF RECON,ioos:station:SCCF:13:1,2017-10-07T12:00:00Z,26.5255,-82.0032,2.57,6.44,1111122 
SCCF RECON,ioos:station:SCCF:13:1,2017-10-07T13:00:00Z,26.5255,-82.0032,2.5,5.19,1111122 
SCCF RECON,ioos:station:SCCF:13:1,2017-10-07T14:00:00Z,26.5255,-82.0032,2.491,4.75,1111122 
SCCF RECON,ioos:station:SCCF:13:1,2017-10-07T15:00:00Z,26.5255,-82.0032,2.696,4.36,1111122 
SCCF RECON,ioos:station:SCCF:13:1,2017-10-07T16:00:00Z,26.5255,-82.0032,2.845,4.83,1111122 
SCCF RECON,ioos:station:SCCF:13:1,2017-10-07T17:00:00Z,26.5255,-82.0032,2.929,13.25,1111122 
SCCF RECON,ioos:station:SCCF:13:1,2017-10-07T18:00:00Z,26.5255,-82.0032,3.02,22.58,1111122 
SCCF RECON,ioos:station:SCCF:13:1,2017-10-07T19:00:00Z,26.5255,-82.0032,3.098,25.76,1111122 
SCCF RECON,ioos:station:SCCF:13:1,2017-10-07T20:00:00Z,26.5255,-82.0032,3.131,26.74,1111122 
SCCF RECON,ioos:station:SCCF:13:1,2017-10-07T21:00:00Z,26.5255,-82.0032,3.1,27.59,1111122 
SCCF RECON,ioos:station:SCCF:13:1,2017-10-07T22:00:00Z,26.5255,-82.0032,3.02,28.25,1111122 
SCCF RECON,ioos:station:SCCF:13:1,2017-10-08T04:00:00Z,26.5255,-82.0032,2.954,13.2,1111122 
SCCF RECON,ioos:station:SCCF:13:1,2017-10-08T05:00:00Z,26.5255,-82.0032,3.01,17.75,1111122 
SCCF RECON,ioos:station:SCCF:13:1,2017-10-08T06:00:00Z,26.5255,-82.0032,3.04,21.3,1111122 
SCCF RECON,ioos:station:SCCF:13:1,2017-10-08T07:00:00Z,26.5255,-82.0032,3.07,24.01,1111122 
SCCF RECON,ioos:station:SCCF:13:1,2017-10-08T08:00:00Z,26.5255,-82.0032,3.07,26.72,1111122 
SCCF RECON,ioos:station:SCCF:13:1,2017-10-08T09:00:00Z,26.5255,-82.0032,2.972,26.33,1111122 
SCCF RECON,ioos:station:SCCF:13:1,2017-10-08T10:00:00Z,26.5255,-82.0032,2.821,22.6,1111122 
SCCF RECON,ioos:station:SCCF:13:1,2017-10-08T11:00:00Z,26.5255,-82.0032,2.7,8.81,1111122 
SCCF RECON,ioos:station:SCCF:13:1,2017-10-08T12:00:00Z,26.5255,-82.0032,2.604,6.53,1111122 
SCCF RECON,ioos:station:SCCF:13:1,2017-10-08T13:00:00Z,26.5255,-82.0032,2.5,5.12,1111122 
SCCF RECON,ioos:station:SCCF:13:1,2017-10-08T14:00:00Z,26.5255,-82.0032,2.423,4.61,1111122 
SCCF RECON,ioos:station:SCCF:13:1,2017-10-08T15:00:00Z,26.5255,-82.0032,2.42,4.06,1111122 
SCCF RECON,ioos:station:SCCF:13:1,2017-10-08T16:00:00Z,26.5255,-82.0032,2.575,3.78,1111122 
SCCF RECON,ioos:station:SCCF:13:1,2017-10-08T17:00:00Z,26.5255,-82.0032,2.749,3.87,1111122 
SCCF RECON,ioos:station:SCCF:13:1,2017-10-08T18:00:00Z,26.5255,-82.0032,2.82,5.44,1111122 
SCCF RECON,ioos:station:SCCF:13:1,2017-10-08T19:00:00Z,26.5255,-82.0032,2.872,12.72,1111122 
SCCF RECON,ioos:station:SCCF:13:1,2017-10-08T20:00:00Z,26.5255,-82.0032,2.924,21.05,1111122 
SCCF RECON,ioos:station:SCCF:13:1,2017-10-08T21:00:00Z,26.5255,-82.0032,2.94,23.2,1111122 
SCCF RECON,ioos:station:SCCF:13:1,2017-10-08T22:00:00Z,26.5255,-82.0032,2.9,24.22,1111122 
SCCF RECON,ioos:station:SCCF:13:1,2017-10-09T04:00:00Z,26.5255,-82.0032,2.786,10.71,1111122 
SCCF RECON,ioos:station:SCCF:13:1,2017-10-09T05:00:00Z,26.5255,-82.0032,2.89,14.59,1111122 
SCCF RECON,ioos:station:SCCF:13:1,2017-10-09T06:00:00Z,26.5255,-82.0032,2.96,19.21,1111122 
SCCF RECON,ioos:station:SCCF:13:1,2017-10-09T07:00:00Z,26.5255,-82.0032,3.0,22.26,1111122 
SCCF RECON,ioos:station:SCCF:13:1,2017-10-09T08:00:00Z,26.5255,-82.0032,3.03,24.8,1111122 
SCCF RECON,ioos:station:SCCF:13:1,2017-10-09T09:00:00Z,26.5255,-82.0032,3.0,26.67,1111122 
SCCF RECON,ioos:station:SCCF:13:1,2017-10-09T10:00:00Z,26.5255,-82.0032,2.898,26.32,1111122 
SCCF RECON,ioos:station:SCCF:13:1,2017-10-09T11:00:00Z,26.5255,-82.0032,2.74,19.91,1111122 
SCCF RECON,ioos:station:SCCF:13:1,2017-10-09T12:00:00Z,26.5255,-82.0032,2.617,6.1,1111122 
SCCF RECON,ioos:station:SCCF:13:1,2017-10-09T13:00:00Z,26.5255,-82.0032,2.513,5.23,1111122 
SCCF RECON,ioos:station:SCCF:13:1,2017-10-09T14:00:00Z,26.5255,-82.0032,2.42,3.95,1111122 
SCCF RECON,ioos:station:SCCF:13:1,2017-10-09T15:00:00Z,26.5255,-82.0032,2.353,3.26,1111122 
SCCF RECON,ioos:station:SCCF:13:1,2017-10-09T16:00:00Z,26.5255,-82.0032,2.36,2.82,1111122 
SCCF RECON,ioos:station:SCCF:13:1,2017-10-09T18:00:00Z,26.5255,-82.0032,2.61,1.75,1111122 
SCCF RECON,ioos:station:SCCF:13:1,2017-10-09T19:00:00Z,26.5255,-82.0032,2.67,2.03,1111122 
SCCF RECON,ioos:station:SCCF:13:1,2017-10-09T20:00:00Z,26.5255,-82.0032,2.724,5.16,1111122 
SCCF RECON,ioos:station:SCCF:13:1,2017-10-09T21:00:00Z,26.5255,-82.0032,2.78,15.43,1111122 
SCCF RECON,ioos:station:SCCF:13:1,2017-10-09T22:00:00Z,26.5255,-82.0032,2.787,20.92,1111122 
SCCF RECON,ioos:station:SCCF:13:1,2017-10-10T04:00:00Z,26.5255,-82.0032,2.64,6.29,1111122 
SCCF RECON,ioos:station:SCCF:13:1,2017-10-10T05:00:00Z,26.5255,-82.0032,2.73,19.51,1111122 
SCCF RECON,ioos:station:SCCF:13:1,2017-10-10T06:00:00Z,26.5255,-82.0032,2.83,19.78,1111122 
SCCF RECON,ioos:station:SCCF:13:1,2017-10-10T07:00:00Z,26.5255,-82.0032,2.87,21.49,1111122 
SCCF RECON,ioos:station:SCCF:13:1,2017-10-10T08:00:00Z,26.5255,-82.0032,2.886,23.58,1111122 
SCCF RECON,ioos:station:SCCF:13:1,2017-10-10T09:00:00Z,26.5255,-82.0032,2.89,24.29,1111122 
SCCF RECON,ioos:station:SCCF:13:1,2017-10-10T10:00:00Z,26.5255,-82.0032,2.839,24.9,1111122 
SCCF RECON,ioos:station:SCCF:13:1,2017-10-10T11:00:00Z,26.5255,-82.0032,2.749,24.7,1111122 
SCCF RECON,ioos:station:SCCF:13:1,2017-10-10T12:00:00Z,26.5255,-82.0032,2.626,15.23,1111122 
SCCF RECON,ioos:station:SCCF:13:1,2017-10-10T13:00:00Z,26.5255,-82.0032,2.52,3.96,1111122 
SCCF RECON,ioos:station:SCCF:13:1,2017-10-10T14:00:00Z,26.5255,-82.0032,2.43,2.82,1111122 
SCCF RECON,ioos:station:SCCF:13:1,2017-10-10T15:00:00Z,26.5255,-82.0032,2.341,2.18,1111122 
SCCF RECON,ioos:station:SCCF:13:1,2017-10-10T16:00:00Z,26.5255,-82.0032,2.29,1.74,1111122 
SCCF RECON,ioos:station:SCCF:13:1,2017-10-10T17:00:00Z,26.5255,-82.0032,2.297,1.2,1111122 
SCCF RECON,ioos:station:SCCF:13:1,2017-10-10T18:00:00Z,26.5255,-82.0032,2.4,0.88,1111122 
SCCF RECON,ioos:station:SCCF:13:1,2017-10-10T19:00:00Z,26.5255,-82.0032,2.525,0.75,1111122 
SCCF RECON,ioos:station:SCCF:13:1,2017-10-10T20:00:00Z,26.5255,-82.0032,2.6,1.29,1111122 
SCCF RECON,ioos:station:SCCF:13:1,2017-10-10T21:00:00Z,26.5255,-82.0032,2.63,5.89,1111122 
SCCF RECON,ioos:station:SCCF:13:1,2017-10-10T22:00:00Z,26.5255,-82.0032,2.688,14.58,1111122 
SCCF RECON,ioos:station:SCCF:13:1,2017-10-11T04:00:00Z,26.5255,-82.0032,2.63,12.86,1111122 
SCCF RECON,ioos:station:SCCF:13:1,2017-10-11T05:00:00Z,26.5255,-82.0032,2.64,19.24,1111122 
SCCF RECON,ioos:station:SCCF:13:1,2017-10-11T06:00:00Z,26.5255,-82.0032,2.71,19.5,1111122 
SCCF RECON,ioos:station:SCCF:13:1,2017-10-11T07:00:00Z,26.5255,-82.0032,2.77,17.5,1111122 
SCCF RECON,ioos:station:SCCF:13:1,2017-10-11T08:00:00Z,26.5255,-82.0032,2.82,18.89,1111122 
SCCF RECON,ioos:station:SCCF:13:1,2017-10-11T09:00:00Z,26.5255,-82.0032,2.83,21.52,1111122 
SCCF RECON,ioos:station:SCCF:13:1,2017-10-11T10:00:00Z,26.5255,-82.0032,2.83,24.32,1111122 
SCCF RECON,ioos:station:SCCF:13:1,2017-10-11T11:00:00Z,26.5255,-82.0032,2.79,24.89,1111122 
SCCF RECON,ioos:station:SCCF:13:1,2017-10-11T12:00:00Z,26.5255,-82.0032,2.7,22.59,1111122 
SCCF RECON,ioos:station:SCCF:13:1,2017-10-11T13:00:00Z,26.5255,-82.0032,2.57,9.19,1111122 
SCCF RECON,ioos:station:SCCF:13:1,2017-10-11T14:00:00Z,26.5255,-82.0032,2.47,3.78,1111122 
SCCF RECON,ioos:station:SCCF:13:1,2017-10-11T15:00:00Z,26.5255,-82.0032,2.39,2.84,1111122 
SCCF RECON,ioos:station:SCCF:13:1,2017-10-11T16:00:00Z,26.5255,-82.0032,2.302,2.06,1111122 
SCCF RECON,ioos:station:SCCF:13:1,2017-10-11T17:00:00Z,26.5255,-82.0032,2.23,1.75,1111122 
SCCF RECON,ioos:station:SCCF:13:1,2017-10-11T18:00:00Z,26.5255,-82.0032,2.221,1.22,1111122 
SCCF RECON,ioos:station:SCCF:13:1,2017-10-11T19:00:00Z,26.5255,-82.0032,2.309,0.87,1111122 
SCCF RECON,ioos:station:SCCF:13:1,2017-10-11T20:00:00Z,26.5255,-82.0032,2.39,0.73,1111122 
SCCF RECON,ioos:station:SCCF:13:1,2017-10-11T21:00:00Z,26.5255,-82.0032,2.46,0.65,1111122 
SCCF RECON,ioos:station:SCCF:13:1,2017-10-11T22:00:00Z,26.5255,-82.0032,2.52,0.94,1111122 
SCCF RECON,ioos:station:SCCF:13:1,2017-10-12T05:00:00Z,26.5255,-82.0032,2.55,17.32,1111122 
SCCF RECON,ioos:station:SCCF:13:1,2017-10-12T06:00:00Z,26.5255,-82.0032,2.56,18.84,1111122 
SCCF RECON,ioos:station:SCCF:13:1,2017-10-12T07:00:00Z,26.5255,-82.0032,2.615,20.84,1111122 
SCCF RECON,ioos:station:SCCF:13:1,2017-10-12T08:00:00Z,26.5255,-82.0032,2.68,18.56,1111122 
SCCF RECON,ioos:station:SCCF:13:1,2017-10-12T09:00:00Z,26.5255,-82.0032,2.73,19.97,1111122 
SCCF RECON,ioos:station:SCCF:13:1,2017-10-12T10:00:00Z,26.5255,-82.0032,2.77,22.63,1111122 
SCCF RECON,ioos:station:SCCF:13:1,2017-10-12T11:00:00Z,26.5255,-82.0032,2.81,22.82,1111122 
SCCF RECON,ioos:station:SCCF:13:1,2017-10-12T12:00:00Z,26.5255,-82.0032,2.817,24.12,1111122 
SCCF RECON,ioos:station:SCCF:13:1,2017-10-12T13:00:00Z,26.5255,-82.0032,2.752,25.52,1111122 
SCCF RECON,ioos:station:SCCF:13:1,2017-10-12T14:00:00Z,26.5255,-82.0032,2.627,23.81,1111122 
SCCF RECON,ioos:station:SCCF:13:1,2017-10-12T15:00:00Z,26.5255,-82.0032,2.502,6.76,1111122 
SCCF RECON,ioos:station:SCCF:13:1,2017-10-12T16:00:00Z,26.5255,-82.0032,2.414,4.59,1111122 
SCCF RECON,ioos:station:SCCF:13:1,2017-10-12T17:00:00Z,26.5255,-82.0032,2.329,3.23,1111122 
SCCF RECON,ioos:station:SCCF:13:1,2017-10-12T18:00:00Z,26.5255,-82.0032,2.252,2.82,1111122 
SCCF RECON,ioos:station:SCCF:13:1,2017-10-12T19:00:00Z,26.5255,-82.0032,2.224,2.21,1111122 
SCCF RECON,ioos:station:SCCF:13:1,2017-10-12T20:00:00Z,26.5255,-82.0032,2.274,1.75,1111122 
SCCF RECON,ioos:station:SCCF:13:1,2017-10-12T21:00:00Z,26.5255,-82.0032,2.37,1.55,1111122 
SCCF RECON,ioos:station:SCCF:13:1,2017-10-12T22:00:00Z,26.5255,-82.0032,2.47,1.33,1111122 
SCCF RECON,ioos:station:SCCF:13:1,2017-10-13T04:00:00Z,26.5255,-82.0032,2.55,18.23,1111122 
SCCF RECON,ioos:station:SCCF:13:1,2017-10-13T05:00:00Z,26.5255,-82.0032,2.528,16.07,1111122 
SCCF RECON,ioos:station:SCCF:13:1,2017-10-13T06:00:00Z,26.5255,-82.0032,2.48,10.17,1111122 
SCCF RECON,ioos:station:SCCF:13:1,2017-10-13T07:00:00Z,26.5255,-82.0032,2.48,9.39,1111122 
SCCF RECON,ioos:station:SCCF:13:1,2017-10-13T08:00:00Z,26.5255,-82.0032,2.5,19.64,1111122 
SCCF RECON,ioos:station:SCCF:13:1,2017-10-13T09:00:00Z,26.5255,-82.0032,2.58,18.06,1111122 
SCCF RECON,ioos:station:SCCF:13:1,2017-10-13T10:00:00Z,26.5255,-82.0032,2.64,18.46,1111122 
SCCF RECON,ioos:station:SCCF:13:1,2017-10-13T11:00:00Z,26.5255,-82.0032,2.693,19.67,1111122 
SCCF RECON,ioos:station:SCCF:13:1,2017-10-13T12:00:00Z,26.5255,-82.0032,2.732,21.42,1111122 
SCCF RECON,ioos:station:SCCF:13:1,2017-10-13T13:00:00Z,26.5255,-82.0032,2.751,23.39,1111122 
SCCF RECON,ioos:station:SCCF:13:1,2017-10-13T14:00:00Z,26.5255,-82.0032,2.72,25.41,1111122 
SCCF RECON,ioos:station:SCCF:13:1,2017-10-13T15:00:00Z,26.5255,-82.0032,2.628,22.01,1111122 
SCCF RECON,ioos:station:SCCF:13:1,2017-10-13T16:00:00Z,26.5255,-82.0032,2.499,16.2,1111122 
SCCF RECON,ioos:station:SCCF:13:1,2017-10-13T17:00:00Z,26.5255,-82.0032,2.4,3.99,1111122 
SCCF RECON,ioos:station:SCCF:13:1,2017-10-13T18:00:00Z,26.5255,-82.0032,2.31,2.93,1111122 
SCCF RECON,ioos:station:SCCF:13:1,2017-10-13T19:00:00Z,26.5255,-82.0032,2.251,2.23,1111122 
SCCF RECON,ioos:station:SCCF:13:1,2017-10-13T20:00:00Z,26.5255,-82.0032,2.26,1.78,1111122 
SCCF RECON,ioos:station:SCCF:13:1,2017-10-13T21:00:00Z,26.5255,-82.0032,2.32,1.4,1111122 
SCCF RECON,ioos:station:SCCF:13:1,2017-10-13T22:00:00Z,26.5255,-82.0032,2.44,1.16,1111122 
SCCF RECON,ioos:station:SCCF:13:1,2017-10-14T04:00:00Z,26.5255,-82.0032,2.75,22.9,1111122 
SCCF RECON,ioos:station:SCCF:13:1,2017-10-14T05:00:00Z,26.5255,-82.0032,2.71,24.01,1111122 
SCCF RECON,ioos:station:SCCF:13:1,2017-10-14T06:00:00Z,26.5255,-82.0032,2.64,23.63,1111122 
SCCF RECON,ioos:station:SCCF:13:1,2017-10-14T07:00:00Z,26.5255,-82.0032,2.55,19.15,1111122 
SCCF RECON,ioos:station:SCCF:13:1,2017-10-14T08:00:00Z,26.5255,-82.0032,2.51,7.56,1111122 
SCCF RECON,ioos:station:SCCF:13:1,2017-10-14T09:00:00Z,26.5255,-82.0032,2.57,7.56,1111122 
SCCF RECON,ioos:station:SCCF:13:1,2017-10-14T10:00:00Z,26.5255,-82.0032,2.648,22.46,1111122 
SCCF RECON,ioos:station:SCCF:13:1,2017-10-14T11:00:00Z,26.5255,-82.0032,2.716,22.37,1111122 
SCCF RECON,ioos:station:SCCF:13:1,2017-10-14T12:00:00Z,26.5255,-82.0032,2.76,19.68,1111122 
SCCF RECON,ioos:station:SCCF:13:1,2017-10-14T13:00:00Z,26.5255,-82.0032,2.81,24.24,1111122 
SCCF RECON,ioos:station:SCCF:13:1,2017-10-14T14:00:00Z,26.5255,-82.0032,2.85,25.46,1111122 
SCCF RECON,ioos:station:SCCF:13:1,2017-10-14T15:00:00Z,26.5255,-82.0032,2.84,26.73,1111122 
SCCF RECON,ioos:station:SCCF:13:1,2017-10-14T16:00:00Z,26.5255,-82.0032,2.757,26.78,1111122 
SCCF RECON,ioos:station:SCCF:13:1,2017-10-14T17:00:00Z,26.5255,-82.0032,2.611,22.74,1111122 
SCCF RECON,ioos:station:SCCF:13:1,2017-10-14T18:00:00Z,26.5255,-82.0032,2.489,6.65,1111122 
SCCF RECON,ioos:station:SCCF:13:1,2017-10-14T19:00:00Z,26.5255,-82.0032,2.401,4.7,1111122 
SCCF RECON,ioos:station:SCCF:13:1,2017-10-14T20:00:00Z,26.5255,-82.0032,2.332,3.23,1111122 
SCCF RECON,ioos:station:SCCF:13:1,2017-10-14T21:00:00Z,26.5255,-82.0032,2.287,2.89,1111122 
SCCF RECON,ioos:station:SCCF:13:1,2017-10-14T22:00:00Z,26.5255,-82.0032,2.359,2.65,1111122 
SCCF RECON,ioos:station:SCCF:13:1,2017-10-15T04:00:00Z,26.5255,-82.0032,2.72,19.48,1111122 
SCCF RECON,ioos:station:SCCF:13:1,2017-10-15T05:00:00Z,26.5255,-82.0032,2.73,22.05,1111122 